Temperature
17 16 16 17 17 17 17 17 17 17 17 17 17 17 16 16 16 16 16 16 16 16 16 16 16 16 16 16 16 16 16 16 16 17 17 17 16 16 16 16 15 15 15
17 17 17 17 17 17 17 17 17 17 17 17 17 16 16 16 16 16 16 15 15 15 15 15 16 16 16 16 16 16 16 16 16 16 16 16 16 16 16 16 15 15 15
17 17 17 17 17 17 17 17 17 17 17 17 17 16 16 16 16 16 16 15 15 15 15 15 15 15 15 16 16 15 15 15 16 16 16 16 16 16 15 15 15 15 15
17 17 17 17 17 17 17 17 17 17 17 17 17 17 16 16 16 16 16 16 15 15 15 15 15 15 15 15 15 15 15 15 15 15 15 15 15 15 15 15 15 15 15
17 17 17 17 17 17 17 17 17 17 17 17 17 17 16 16 16 16 16 16 15 15 15 15 15 15 15 15 15 15 15 15 15 15 15 15 15 15 15 15 15 14 14
18 17 17 17 17 17 17 17 17 17 17 17 16 16 16 16 16 16 16 16 16 15 15 15 15 15 15 15 15 15 15 15 14 14 14 15 15 15 15 15 14 14 14
18 18 18 17 17 17 17 17 17 17 17 17 17 16 16 16 16 16 16 16 16 15 15 15 15 15 15 15 15 15 15 15 15 14 14 14 14 14 14 14 14 14 14
18 18 18 17 17 17 17 17 17 17 17 17 17 17 17 16 16 16 16 16 16 15 15 15 15 15 15 15 15 15 15 15 15 14 14 14 14 14 14 13 13 13 13
18 18 17 17 17 17 17 17 17 17 17 17 17 16 16 16 16 16 16 16 15 15 15 15 15 15 15 15 14 14 14 14 14 14 14 14 14 14 13 13 13 12 12
18 18 17 17 17 17 17 17 17 17 17 16 16 16 16 16 16 16 16 15 15 15 15 15 15 15 14 14 14 14 14 14 14 13 13 13 13 13 13 13 13 12 12
17 17 17 17 17 17 17 17 16 16 16 16 16 16 15 15 15 15 15 15 15 15 14 14 14 14 14 14 14 14 14 13 13 13 13 13 13 13 13 13 13 12 12
17 17 17 17 16 16 16 16 16 16 16 15 15 15 15 15 15 15 15 14 14 14 14 14 14 14 14 14 13 13 13 13 13 12 12 12 12 12 12 12 12 12 12
16 16 16 16 16 15 15 15 15 15 15 15 14 14 14 14 14 14 14 14 14 13 13 13 13 13 13 13 13 13 13 12 12 12 12 12 12 12 12 12 12 11 11
15 15 15 15 15 15 15 15 14 14 14 14 14 14 13 13 13 13 13 13 13 13 13 13 13 13 13 12 12 12 12 12 12 11 11 11 11 11 11 11 11 11 11
14 14 14 14 14 14 14 14 14 14 13 13 13 13 13 13 13 13 13 13 13 12 12 12 12 12 12 12 12 12 11 11 11 11 10 10 10 10 10 10 10 10 10
14 14 14 14 14 14 13 13 13 13 13 13 13 13 12 12 12 12 12 12 12 12 12 11 11 11 11 11 11 11 11 10 10 10 10 9 9 9 9 9 9 9 9
13 13 13 13 13 13 13 13 13 12 12 12 12 12 12 12 12 12 12 11 11 11 11 11 10 10 10 10 10 10 10 9 9 9 9 9 9 8 8 8 8 8 8
13 13 13 13 13 13 13 13 13 12 12 12 11 11 11 11 11 11 11 11 11 10 10 10 10 9 9 9 9 9 9 8 8 8 8 8 8 8 8 8 8 8 7
12 13 13 13 13 13 13 13 12 12 12 12 11 11 10 10 10 10 10 10 10 9 9 9 9 9 8 8 8 8 8 8 7 7 7 7 7 7 7 7 7 7 7
12 12 12 13 13 13 12 12 12 12 11 11 10 10 10 10 10 10 9 9 9 8 8 8 8 8 7 7 7 7 7 7 7 7 6 6 6 6 6 6 6 6 6
12 12 12 12 12 12 12 11 11 11 11 10 10 9 10 9 9 9 8 8 8 7 7 7 7 7 7 7 6 6 6 6 6 6 6 5 5 5 5 5 5 5 5
11 11 11 11 11 11 11 11 10 10 10 10 9 9 9 8 8 8 8 7 7 7 7 6 6 6 6 6 6 5 5 5 5 5 5 5 5 5 5 5 4 4 4
11 11 10 10 10 10 10 10 9 9 9 9 8 8 8 7 7 7 7 6 6 6 6 6 6 6 5 5 5 5 5 4 4 5 5 5 5 4 4 4 4 4 4
10 9 9 9 9 9 9 9 8 8 8 7 7 7 7 7 6 6 6 6 6 5 5 5 5 5 5 4 4 4 4 4 4 4 4 4 4 4 4 3 3 3 3
9 9 8 8 8 8 8 7 7 7 7 6 6 6 6 6 6 5 5 5 5 5 5 5 4 4 4 4 4 4 4 4 4 4 4 4 4 3 3 3 3 3 3
8 8 8 7 7 7 7 7 6 6 6 6 5 5 5 5 5 5 4 4 4 4 4 4 4 4 4 4 4 4 4 4 4 4 4 4 3 3 3 3 3 3 3
Wind_Speed
11 10 10 11 11 10 9 8 7 7 9 9 8 7 7 7 7 6 5 6 7 6 5 4 4 3 3 3 2 2 2 2 3 3 1 1 3 2 5 7 8 10 14
11 10 10 10 10 10 10 9 8 8 8 8 8 8 8 8 7 7 7 7 7 7 6 6 5 5 4 3 3 3 2 2 2 4 2 1 3 5 5 5 7 10 11
12 11 11 11 10 10 10 9 9 9 9 9 9 9 8 8 8 8 8 7 7 7 7 6 6 6 5 4 4 4 3 4 3 3 4 3 3 4 5 6 7 7 12
12 12 11 10 10 10 10 10 10 10 10 9 9 9 9 8 8 8 8 8 7 6 6 6 7 7 7 6 5 5 5 5 4 4 5 5 4 5 4 4 5 6 7
12 12 11 10 10 9 9 9 10 10 11 9 9 9 9 9 9 10 9 9 8 7 6 7 8 8 8 7 6 5 6 5 5 5 6 5 5 4 4 4 6 5 6
10 11 10 10 10 10 9 9 9 9 9 9 10 10 10 10 11 13 10 8 7 8 7 7 7 7 9 10 10 8 6 6 6 5 6 6 5 5 4 4 4 5 5
10 10 10 11 10 10 11 10 10 10 9 8 9 8 8 7 9 12 12 8 6 7 7 7 8 9 10 9 11 12 12 13 11 7 8 8 7 5 4 5 5 6 6
9 9 10 11 11 11 10 9 9 8 8 8 8 8 7 8 10 11 11 8 7 6 6 6 7 6 6 6 7 8 9 10 11 10 10 10 10 6 5 6 6 7 7
8 7 8 9 9 9 9 8 8 7 7 7 6 6 6 6 8 10 10 6 6 7 7 7 6 6 7 7 7 7 7 7 11 14 14 14 14 14 9 5 7 7 8
6 6 6 6 7 6 6 6 6 6 6 6 5 5 5 4 5 7 8 5 5 6 6 6 7 7 7 7 6 6 8 7 7 7 8 11 12 13 15 11 9 9 8
4 5 5 5 6 5 4 4 4 4 4 4 4 3 2 2 4 6 7 4 4 5 4 3 2 3 4 6 6 6 7 6 6 7 7 7 7 8 9 9 9 9 9
5 5 5 5 4 4 4 4 4 4 4 4 3 3 2 2 2 4 6 5 3 3 3 2 1 1 4 6 6 7 8 7 6 7 7 8 7 7 6 6 8 10 12
8 7 7 7 6 5 5 5 3 3 2 2 2 2 1 1 2 3 4 5 4 3 2 3 4 3 4 5 8 9 7 6 6 7 7 7 6 6 5 5 6 8 10
8 8 8 8 8 7 6 6 5 3 2 2 1 1 2 2 2 2 0 1 3 3 4 5 6 7 6 6 5 5 5 6 6 6 6 6 6 6 5 5 5 5 6
8 7 7 7 7 7 7 7 6 6 5 4 3 3 2 2 3 4 2 2 2 1 3 3 4 3 3 3 3 4 4 4 4 5 5 6 6 6 6 5 5 5 7
7 6 5 5 5 6 7 8 12 9 10 11 10 7 5 5 4 5 5 4 4 3 2 3 2 2 3 3 3 3 3 2 3 3 4 5 5 6 6 5 5 6 7
7 5 4 4 5 5 5 6 6 5 8 9 9 8 7 4 3 3 4 5 5 2 1 2 2 3 3 3 4 4 4 4 3 3 4 4 5 5 5 6 6 6 6
7 6 5 4 4 4 4 3 4 5 5 4 4 4 4 2 2 3 4 4 3 1 2 3 3 3 4 4 4 4 4 4 4 4 4 4 4 5 5 6 6 6 7
7 6 5 5 4 4 4 4 4 4 4 4 5 3 1 1 2 3 4 3 4 4 4 4 5 5 5 4 4 4 5 4 5 5 5 5 5 6 6 7 7 9 8
5 7 6 4 5 5 5 5 5 4 5 5 6 5 3 2 3 3 2 3 4 5 5 5 5 5 5 5 5 5 5 5 5 5 5 6 6 6 7 8 8 8 7
6 6 6 6 7 7 7 6 6 5 5 6 6 6 6 5 5 5 5 5 5 5 5 5 5 5 5 5 5 6 7 6 6 6 6 6 7 7 7 7 8 9 8
6 7 7 8 7 6 6 6 6 6 6 6 5 5 6 5 6 6 6 6 6 5 5 5 5 5 5 5 6 6 7 7 7 7 8 8 8 9 9 8 8 9 9
7 8 8 8 7 7 6 7 7 7 7 7 7 6 6 6 6 6 6 6 6 6 6 5 6 6 6 7 6 6 7 7 7 8 9 9 9 9 9 10 11 11 10
9 9 8 7 7 7 7 7 7 8 8 7 7 6 6 6 6 7 6 6 6 6 7 7 6 8 10 8 8 7 7 8 10 9 10 10 10 10 9 10 10 11 10
8 8 8 7 7 7 7 8 8 8 8 8 8 7 8 7 7 7 7 8 8 7 8 8 7 9 10 11 11 10 10 12 11 10 9 8 10 11 10 11 10 11 11
8 8 8 7 7 7 7 7 8 8 7 7 7 7 7 8 8 8 8 8 8 7 7 8 10 10 11 12 12 12 13 13 12 12 10 8 9 9 10 9 12 11 11
Wind_Direction
173 180 177 180 183 178 179 182 175 164 159 163 169 171 174 180 183 189 207 182 193 207 216 205 203 253 285 280 258 255 256 264 272 288 268 174 149 153 166 218 237 225 221
173 176 177 176 177 178 181 182 174 166 166 169 176 178 184 187 188 194 213 200 198 202 210 214 205 217 224 267 284 266 252 240 254 279 278 222 193 193 194 217 243 249 245
174 178 177 176 178 182 183 180 176 173 178 179 183 188 193 193 192 200 212 216 209 206 207 210 212 217 217 223 242 264 265 254 224 253 267 252 227 218 211 226 242 255 264
175 180 180 181 182 185 184 181 181 180 183 185 188 192 196 199 198 203 211 220 218 215 212 211 215 216 217 218 229 240 258 269 252 244 257 254 240 222 206 221 243 238 245
176 182 182 182 183 187 186 186 184 184 190 189 192 198 200 205 209 205 208 214 214 220 221 219 223 221 217 212 228 225 234 242 250 245 249 250 246 237 223 224 243 249 243
179 184 182 182 184 187 188 188 187 191 194 191 196 203 206 214 209 199 200 212 206 212 221 224 227 221 217 215 226 235 236 241 249 256 260 258 254 248 244 248 256 263 267
184 186 185 186 188 190 195 191 192 193 195 197 200 201 209 218 205 193 198 208 214 215 216 218 233 234 214 219 223 230 239 241 237 248 264 272 281 288 291 280 275 276 272
187 191 189 190 193 193 195 193 193 191 193 197 201 203 207 216 200 193 198 210 227 231 231 226 228 251 240 227 230 230 234 238 235 235 245 255 263 275 277 275 275 275 270
183 187 187 186 189 188 190 190 188 186 193 196 198 206 212 214 198 195 194 209 223 236 242 243 234 231 236 232 235 243 247 249 243 240 236 242 247 252 253 266 266 264 269
177 179 178 172 175 183 185 181 181 184 191 194 198 203 208 209 192 190 195 217 228 237 237 239 246 243 242 228 237 247 254 260 271 271 254 251 250 251 242 232 244 255 263
149 143 141 144 152 155 156 158 162 173 177 183 177 170 168 185 168 173 181 212 241 247 249 240 233 218 227 229 233 243 251 265 276 273 268 259 251 248 243 233 229 236 250
98 102 109 111 130 145 135 137 143 157 163 172 166 164 165 165 142 166 178 207 255 284 293 310 349 267 241 241 237 248 258 266 266 268 269 268 265 260 253 245 236 235 237
76 79 82 86 82 77 93 104 107 116 149 157 157 161 148 121 107 135 184 214 240 250 286 316 315 293 272 255 247 252 259 255 256 262 268 272 274 276 272 266 260 250 244
78 78 80 82 80 72 71 71 74 71 79 97 107 125 113 75 46 37 44 229 242 262 280 281 277 270 265 267 266 251 242 246 251 260 268 274 279 281 283 290 289 284 276
76 81 84 85 91 83 76 63 70 61 58 63 57 60 71 62 28 27 33 10 340 323 299 275 266 264 264 266 267 262 254 250 257 270 282 292 298 301 299 296 290 289 280
66 69 87 99 102 106 104 83 57 69 70 73 72 77 80 82 72 51 36 7 342 341 305 287 305 320 318 318 315 309 306 312 312 307 302 302 300 295 293 294 288 282 281
57 56 66 82 96 105 114 121 113 82 66 68 73 76 84 92 71 46 16 347 324 316 292 318 341 341 341 343 343 342 340 343 334 324 316 314 311 304 303 299 295 290 288
52 52 48 60 71 87 96 105 118 127 124 109 91 86 82 64 29 5 354 349 355 6 356 3 1 0 358 358 357 353 342 339 339 329 320 317 316 311 310 309 308 306 302
49 41 38 43 59 66 67 71 73 76 87 110 116 98 45 335 340 343 359 12 11 16 18 12 4 360 357 358 354 347 340 335 332 324 322 322 320 317 313 311 306 303 299
64 49 35 41 51 52 53 55 58 58 59 60 67 59 38 21 49 42 46 32 22 21 14 7 1 354 354 355 349 341 331 328 330 328 327 323 319 316 313 310 307 305 301
43 48 37 46 52 42 40 44 45 44 49 60 63 54 24 20 27 33 33 30 23 17 11 2 356 349 351 345 338 334 335 335 335 331 327 325 322 317 310 306 305 304 304
30 38 42 44 48 40 31 36 40 44 44 47 50 50 41 23 24 31 27 23 17 12 8 1 353 350 352 350 346 342 336 333 335 335 332 328 323 315 311 308 307 308 307
33 37 42 44 42 37 37 38 37 38 36 38 35 34 35 26 27 26 19 18 15 9 8 5 357 356 358 357 354 352 348 344 339 334 326 318 313 309 309 306 305 305 306
37 38 38 39 39 38 38 39 38 39 39 36 34 33 32 28 26 24 18 16 11 8 8 7 3 358 358 354 351 0 5 351 337 326 319 309 304 301 302 302 301 301 302
39 38 38 40 40 40 40 42 43 41 38 35 30 27 25 22 21 20 17 11 5 6 5 7 4 2 4 5 3 3 357 349 339 326 313 303 299 298 297 297 297 299 299
41 40 40 41 40 42 43 43 42 39 37 34 30 24 21 19 17 15 14 8 359 358 359 0 1 9 10 7 6 1 355 347 337 325 309 296 293 294 300 300 301 300 300
Height
1481 1485 1490 1494 1499 1504 1508 1513 1517 1520 1523 1526 1529 1531 1534 1536 1538 1541 1543 1545 1546 1548 1549 1551 1552 1553 1554 1556 1557 1558 1559 1559 1560 1561 1561 1561 1561 1562 1561 1561 1561 1560 1560
1480 1484 1489 1493 1498 1502 1506 1510 1514 1517 1521 1524 1527 1529 1532 1534 1536 1538 1540 1542 1544 1545 1547 1548 1549 1551 1551 1553 1554 1555 1556 1556 1557 1557 1558 1558 1558 1558 1558 1557 1557 1557 1556
1480 1484 1488 1492 1496 1500 1504 1507 1511 1514 1518 1521 1524 1527 1529 1532 1534 1536 1538 1540 1542 1543 1544 1545 1546 1548 1548 1549 1550 1552 1552 1553 1554 1554 1554 1555 1555 1554 1554 1553 1553 1552 1552
1480 1483 1487 1491 1495 1498 1502 1505 1508 1512 1515 1518 1521 1524 1527 1529 1531 1533 1535 1537 1539 1540 1541 1542 1543 1544 1545 1546 1547 1548 1549 1549 1550 1550 1550 1550 1551 1550 1550 1549 1548 1548 1547
1479 1483 1486 1490 1494 1497 1500 1503 1506 1510 1513 1516 1519 1522 1524 1526 1528 1530 1532 1534 1535 1537 1538 1539 1540 1540 1541 1542 1543 1544 1545 1545 1546 1546 1546 1546 1546 1546 1545 1545 1544 1543 1543
1478 1481 1485 1488 1492 1495 1498 1501 1504 1507 1510 1513 1516 1518 1520 1523 1525 1527 1529 1531 1532 1533 1534 1535 1536 1537 1538 1538 1539 1540 1541 1541 1541 1541 1541 1542 1541 1542 1542 1541 1540 1539 1538
1477 1480 1483 1486 1490 1493 1496 1499 1502 1504 1507 1510 1512 1514 1517 1519 1521 1523 1525 1527 1528 1529 1530 1531 1532 1533 1533 1534 1534 1535 1535 1536 1536 1536 1536 1535 1536 1536 1536 1535 1534 1533 1532
1475 1478 1481 1484 1487 1490 1493 1496 1499 1502 1504 1506 1509 1511 1513 1514 1516 1518 1520 1522 1523 1524 1526 1527 1527 1528 1529 1530 1530 1530 1529 1530 1530 1530 1530 1529 1530 1530 1530 1529 1528 1527 1525
1473 1475 1478 1481 1484 1487 1490 1492 1495 1498 1501 1503 1505 1507 1508 1510 1512 1514 1516 1517 1518 1519 1521 1522 1522 1523 1524 1524 1525 1525 1524 1524 1524 1524 1524 1523 1523 1523 1523 1523 1521 1520 1518
1471 1473 1476 1478 1481 1483 1486 1489 1492 1494 1497 1499 1501 1503 1504 1506 1507 1509 1511 1512 1513 1514 1515 1516 1517 1518 1518 1519 1519 1519 1518 1518 1519 1518 1518 1517 1517 1516 1516 1516 1514 1513 1511
1470 1472 1474 1475 1478 1480 1483 1486 1489 1491 1494 1496 1498 1499 1500 1502 1503 1505 1506 1507 1508 1510 1511 1511 1512 1512 1512 1513 1513 1513 1513 1513 1513 1512 1511 1511 1510 1510 1509 1508 1507 1506 1505
1469 1470 1472 1474 1477 1479 1481 1484 1486 1489 1491 1493 1495 1496 1497 1499 1500 1500 1502 1504 1505 1506 1506 1507 1507 1507 1507 1507 1507 1507 1507 1507 1506 1506 1505 1505 1504 1503 1503 1502 1501 1499 1498
1469 1470 1472 1474 1476 1478 1480 1482 1484 1487 1489 1491 1492 1493 1495 1496 1497 1497 1499 1500 1501 1501 1502 1503 1503 1503 1503 1503 1502 1502 1502 1501 1501 1500 1499 1499 1498 1497 1496 1495 1494 1492 1491
1470 1472 1473 1475 1477 1478 1480 1482 1483 1486 1487 1489 1490 1491 1492 1494 1494 1495 1495 1496 1497 1498 1498 1499 1499 1499 1499 1498 1498 1497 1496 1496 1495 1495 1494 1493 1492 1492 1491 1489 1487 1486 1484
1472 1474 1475 1477 1479 1480 1481 1483 1484 1486 1487 1488 1489 1491 1491 1492 1493 1493 1494 1494 1494 1495 1495 1495 1495 1495 1495 1494 1494 1493 1492 1492 1491 1490 1489 1488 1486 1485 1484 1482 1481 1479 1477
1475 1476 1478 1479 1481 1482 1483 1484 1485 1487 1488 1489 1490 1491 1491 1492 1492 1492 1492 1492 1492 1492 1493 1492 1492 1492 1492 1491 1491 1490 1489 1488 1487 1485 1484 1483 1481 1480 1478 1476 1475 1473 1471
1478 1479 1481 1482 1482 1484 1484 1485 1486 1488 1489 1490 1490 1491 1491 1492 1492 1491 1491 1492 1491 1491 1491 1490 1490 1490 1490 1489 1488 1487 1486 1485 1483 1482 1480 1478 1477 1475 1473 1471 1470 1468 1466
1482 1483 1484 1484 1485 1486 1487 1487 1488 1488 1489 1489 1490 1491 1491 1492 1491 1491 1491 1491 1491 1490 1490 1490 1489 1488 1488 1486 1485 1484 1483 1482 1480 1478 1477 1475 1473 1471 1469 1467 1465 1463 1461
1485 1485 1486 1487 1487 1488 1489 1489 1489 1490 1490 1490 1491 1491 1491 1491 1491 1491 1491 1490 1490 1490 1489 1489 1488 1487 1486 1485 1483 1482 1480 1479 1477 1475 1473 1471 1469 1467 1466 1463 1461 1459 1457
1488 1488 1489 1489 1490 1490 1491 1491 1491 1492 1492 1492 1491 1491 1491 1492 1492 1492 1491 1490 1490 1489 1488 1488 1487 1486 1484 1483 1481 1479 1478 1476 1474 1472 1470 1468 1466 1464 1462 1460 1457 1455 1452
1492 1491 1491 1491 1492 1492 1493 1493 1494 1494 1494 1493 1493 1493 1492 1492 1492 1492 1491 1490 1490 1489 1488 1487 1486 1484 1482 1481 1479 1477 1475 1473 1471 1469 1467 1464 1462 1460 1457 1455 1453 1451 1448
1494 1494 1494 1494 1494 1494 1494 1495 1495 1495 1495 1495 1494 1494 1493 1493 1493 1492 1491 1491 1490 1489 1487 1486 1484 1482 1480 1478 1476 1474 1472 1470 1468 1465 1462 1460 1457 1455 1453 1450 1448 1445 1443
1496 1496 1496 1496 1496 1496 1496 1496 1496 1496 1496 1496 1495 1495 1494 1494 1493 1492 1491 1490 1489 1488 1486 1484 1483 1481 1478 1476 1474 1471 1469 1466 1464 1461 1458 1455 1452 1450 1448 1445 1443 1440 1438
1499 1498 1498 1498 1498 1498 1498 1498 1498 1497 1497 1497 1496 1496 1495 1494 1493 1492 1491 1490 1488 1486 1485 1483 1481 1479 1476 1474 1471 1468 1466 1463 1460 1456 1453 1451 1448 1445 1443 1440 1438 1435 1433
1501 1501 1501 1500 1500 1500 1500 1499 1499 1499 1498 1498 1497 1496 1495 1494 1494 1492 1491 1489 1487 1485 1484 1482 1479 1477 1474 1471 1469 1465 1462 1459 1456 1453 1449 1446 1443 1441 1438 1435 1433 1430 1428
1503 1503 1503 1502 1502 1502 1501 1501 1501 1500 1500 1499 1498 1497 1496 1495 1494 1492 1490 1488 1487 1485 1483 1480 1478 1475 1472 1469 1466 1463 1459 1455 1452 1449 1445 1442 1439 1436 1434 1431 1428 1426 1424